Location: Albany
(35.0170°S, 117.8920°E)
Time: 19:35:07
(UTC+08:00)

A-11 Canister half - Pass Details

Date: 24 January 2021
Orbit: 1525 x 1684 km, 47.3° (Epoch: 03 March)

Event Time Altitude Azimuth Distance (km) Brightness Sun altitude
Rises 01:36:32 0° 321° (NW) 4,925 - -32.8°
Reaches altitude 10° 01:39:43 10° 324° (NW) 3,942 - -32.5°
Exits shadow 01:48:20 60° 8° (N) 1,886 9.1 -31.8°
Maximum altitude 01:49:43 65° 43° (NE) 1,819 9.1 -31.7°
Drops below altitude 10° 01:59:36 10° 121° (ESE) 3,901 11.8 -30.8°
Sets 02:02:44 0° 124° (ESE) 4,871 12.5 -30.5°
